Regional Weather Roundup
Issued by NWS Upton, NY

Current Version | Previous Version | Text Only | Print | Product List | Glossary On
Versions: 1 2 3 4 5 6 7 8 9 10 11 12 13 14 15 16 17 18 19 20 21 22 23 24 25 26 27 28 29 30 31 32 33 34 35 36 37 38 39 40 41 42 43 44 45 46 47 48 49 50
000
ASUS41 KOKX 302304
RWROKX

REGIONAL WEATHER ROUNDUP
NATIONAL WEATHER SERVICE NEW YORK NY
700 PM EDT SAT APR 30 2016

NOTE: "FAIR" INDICATES FEW OR NO CLOUDS BELOW 12,000 FEET WITH NO
SIGNIFICANT WEATHER AND/OR OBSTRUCTIONS TO VISIBILITY.

NYZ071-072-176-178-NJZ106-104-010000-
NEW YORK CITY METRO AREA


CITY           SKY/WX    TMP DP  RH WIND       PRES   REMARKS
CENTRAL PARK   CLEAR     55  31  39 VRB5      30.25R
LAGUARDIA APRT MOCLDY    55  38  52 S13       30.22R
KENNEDY INTL   PTCLDY    52  39  61 S12       30.25R
NEWARK/LIBERTY PTCLDY    58  29  33 S10       30.23R
BRNX BOT. GARD   N/A     54  36  50 S9        30.24R
TETERBORO      CLEAR     58  31  35 S8        30.21R
$$

NYZ177-179-078>081-010000-
LONG ISLAND NEW YORK

CITY           SKY/WX    TMP DP  RH WIND       PRES   REMARKS
FARMINGDALE    CLEAR     51  37  58 S10       30.25R
ISLIP          CLOUDY    50  37  61 SE10      30.24R
SHIRLEY        PTCLDY    51  37  58 S9        30.25S
RIVERHEAD        N/A     52  36  54 W3        30.24S
WESTHAMPTON    PTCLDY    48  35  60 S8        30.26S
EAST HAMPTON   FAIR      47  37  67 S8        30.25R
MONTAUK POINT    N/A     47  37  68 SE6       30.27R
$$

NYZ052-065-067-010000-
HUDSON VALLEY

CITY           SKY/WX    TMP DP  RH WIND       PRES   REMARKS
WHITE PLAINS   CLEAR     55  37  50 S8        30.21R
NEWBURGH       MOCLDY    59  45  58 NW5       30.19R
MONTGOMERY     CLEAR     58  43  57 SW5       30.18R
POUGHKEEPSIE   CLOUDY    63  38  39 SW5       30.17S
ALBANY         MOCLDY    62  37  39 S14       30.16R
$$

NJZ001-105-106-008-010-013-015-019>022-104-010000-
NEW JERSEY

CITY           SKY/WX    TMP DP  RH WIND       PRES   REMARKS
NEWARK/LIBERTY PTCLDY    58  29  33 S10       30.23R
TETERBORO      CLEAR     58  31  35 S8        30.21R
CALDWELL       CLEAR     60  25  26 S9        30.22R
MORRISTOWN     MOCLDY    59  36  41 S10       30.22R
SOMERVILLE     CLOUDY    58  41  53 SE6       30.21R
SUSSEX         CLOUDY    59  41  51 SW5       30.21R
ANDOVER          N/A     57  42  57 VRB5      30.21R
TRENTON        CLOUDY    57  40  52 S7        30.22R
MILLVILLE      PTCLDY    54  37  52 SE7       30.23R
ATLANTIC CITY  CLEAR     52  37  56 E9        30.25R
WRIGHTSTOWN    CLOUDY    55  37  50 E7        30.21R
TOMS RIVER     CLEAR     54  34  47 SE7       30.26R
BELMAR         CLEAR     53  35  50 S7        30.26R
$$

PAZ047>061-062-071-010000-
EASTERN PENNSYLVANIA

CITY           SKY/WX    TMP DP  RH WIND       PRES   REMARKS
PHILADELPHIA   CLOUDY    59  43  55 S8        30.22S
ALLENTOWN      CLOUDY    56  43  61 W5        30.21R
SCRANTON       CLOUDY    55  40  56 CALM      30.19R
$$

CTZ002-004>006-009-010-012-RIZ004-006-007-MAZ004-011-015-010000-
SOUTHERN NEW ENGLAND
 IN CT

CITY           SKY/WX    TMP DP  RH WIND       PRES   REMARKS
BRADLEY INTL   CLOUDY    59  37  44 S18       30.17R
HARTFORD       CLOUDY    59  37  44 S15       30.20R
DANBURY        PTCLDY    58  39  49 S10       30.21R
WTRBRY/OXFORD  NOT AVBL
BRIDGEPORT     PTCLDY    55  40  56 S10       30.22S
MERIDEN        PTCLDY    55  32  41 S14       30.22R
NEW HAVEN      MOCLDY    53  40  61 SE10      30.23R
CHESTER        CLOUDY    52  34  50 SE7G14    30.23R
GROTON         PTCLDY    49  44  83 S10       30.25R
WILLIMANTIC    CLEAR     55  31  39 S10       30.22R

 IN RI

CITY           SKY/WX    TMP DP  RH WIND       PRES   REMARKS
PROVIDENCE     MOCLDY    49  32  52 S13       30.25R
BLOCK ISLAND   CLEAR     46  34  62 SE8       30.26R
WESTERLY       PTCLDY    48  35  60 S9        30.26R

 IN MA

CITY           SKY/WX    TMP DP  RH WIND       PRES   REMARKS
BOSTON         MOCLDY    53  34  48 SE10      30.20F
WORCESTER      MOCLDY    57  34  41 S15       30.17R
WESTFIELD      CLOUDY    62  38  40 S8        30.16R
PROVINCETOWN   CLEAR     49  30  48 SE7       30.24S
NANTUCKET      CLEAR     47  36  65 SE8       30.25S
$$

ANZ330-335-338-340-345-350-353-355-010000-
COASTAL MARINE OBSERVATIONS


STATION/POSITION TIME  SKY/WX   TEMP    WIND        PRES    VSBY  WAVE
                                AIR SEA DIR/SP/G                  HT/PER
                 (UTC)          (F)     (DEG/KT/KT) (MB)    (MI)  (FT/S)
NY HARB ENTRANCE 2150            50 52  160/ 10/ 10 1023.5          4/ 8
20S FIRE ISLAND  2150            48 49  140/ 10/ 12 1023.7          5/ 8
GREAT SOUTH BAY  2200            49 58  180/  8/ 10   N/A
23 SSW MONTAUK P 2250            46 48  140/  6/  8 1023.9          4/ 7
15 E BARNEGAT LI 2222               51                N/A           5/ 8
HUDSON CANYON    2150            48 48              1023.5          6/ 8
KINGS POINT      2200            54 55              1022.9
EXECUTION ROCKS  NOT AVBL
CENTRAL LI SOUND 2200            51     150/ 12/ 14   N/A           1/ 2
EASTERN LI SOUND 2200            50 49  150/  8/ 10   N/A
ROBBINS REEF     2200            53                 1022.5
$$


>>>>>>>>>>>>>>>>>>>>>>>>>>>> KEY <<<<<<<<<<<<<<<<<<<<<<<<<<<
>                                                          <
>     SKY/WX - SKY CONDITION/PRESENT WEATHER               <
>     TMP    - TEMPERATURE IN FAHRENHEIT                   <
>     DP     - DEWPOINT IN FAHRENHEIT                      <
>     RH     - RELATIVE HUMIDITY IN PERCENT                <
>     WIND   - DIRECTION AND SPEED IN MPH                  <
>     PRES   - MEAN SEA LEVEL PRESSURE IN INCHES OF HG     <
>     WCI    - WIND CHILL INDEX                            <
>     VSB    - VISIBILITY IN MILES                         <
>     HX     - HEAT INDEX                                  <
>     TC     - TEMPERATURE IN CELSIUS                      <
>     VRB    - VARIABLE WIND DIRECTION                     <
>                                                          <
>>>>>>>>>>>>>>>>>>>>>>>>>>>> KEY <<<<<<<<<<<<<<<<<<<<<<<<<<<





USA.gov is the U.S. government's official web portal to all federal, state and local government web resources and services.